Location: Newark
(33.6333°S, 78.8500°W)
Time: 20:08:19
(UTC+00:00)

Tiros 1 despin weight - Pass Details

Date: 25 September 2019
Orbit: 593 x 643 km, 48.2° (Epoch: 21 October)

Event Time Altitude Azimuth Distance (km) Brightness Sun altitude
Rises 06:22:09 0° 238° (WSW) 2,908 - -51.4°
Reaches altitude 10° 06:25:42 10° 210° (SSW) 2,016 - -51.0°
Maximum altitude 06:27:54 13° 181° (S) 1,821 - -50.7°
Drops below altitude 10° 06:30:07 10° 153° (SSE) 2,031 - -50.5°
Sets 06:33:43 0° 125° (SE) 2,949 - -50.0°
